CQ0XBF-11 Weather Reports


time (UTC)temp
C
wind
direction
speed
KPH
gust
KPH
rain 1hr
cm
rain 24hr
cm
rain mn
cm
humidity
%
barometer
mb
20190616070945 2 323 0.0 11.3 0.00 0.00 0.00 73 1015.1
20190616070743 2 316 4.8 11.3 0.00 0.00 0.00 76 1015.1
20190616070542 1 60 3.2 3.2 0.00 0.00 0.00 75 1015.1
20190616070340 2 333 0.0 3.2 0.00 0.00 0.00 79 1015.1
20190616070139 2 226 0.0 3.2 0.00 0.00 0.00 81 1015.2
20190616065937 2 343 0.0 8.0 0.00 0.00 0.00 83 1015.1
20190616065736 2 270 0.0 8.0 0.00 0.00 0.00 83 1015.0
20190616065534 2 270 0.0 9.7 0.00 0.00 0.00 83 1015.0
20190616065333 2 309 0.0 9.7 0.00 0.00 0.00 83 1015.0
20190616065131 2 330 0.0 9.7 0.00 0.00 0.00 84 1014.9
20190616064930 2 255 0.0 8.0 0.00 0.00 0.00 85 1014.9
20190616064728 2 255 0.0 8.0 0.00 0.00 0.00 85 1014.8
20190616064526 2 272 3.2 9.7 0.00 0.00 0.00 85 1014.7
20190616064325 2 279 0.0 9.7 0.00 0.00 0.00 85 1014.8
20190616064123 2 305 0.0 9.7 0.00 0.00 0.00 85 1014.8
20190616063922 2 305 6.4 12.9 0.00 0.00 0.00 86 1014.7
20190616063720 2 341 0.0 12.9 0.00 0.00 0.00 86 1014.7
20190616063518 2 299 0.0 11.3 0.00 0.00 0.00 86 1014.7
20190616063317 2 330 9.7 11.3 0.00 0.00 0.00 87 1014.7
20190616063115 2 313 4.8 11.3 0.00 0.00 0.00 87 1014.7
20190616062914 2 302 0.0 14.5 0.00 0.00 0.00 87 1014.6
20190616062712 3 305 3.2 14.5 0.00 0.00 0.00 87 1014.6
20190616062511 3 11 11.3 12.9 0.00 0.00 0.00 88 1014.7
20190616062309 3 257 0.0 12.9 0.00 0.00 0.00 88 1014.6
20190616062108 3 251 1.6 12.9 0.00 0.00 0.00 88 1014.7
20190616061906 2 315 1.6 6.4 0.00 0.00 0.00 88 1014.6
20190616061705 1 307 0.0 6.4 0.00 0.00 0.00 88 1014.6
20190616061503 2 312 0.0 8.0 0.00 0.00 0.00 89 1014.7
20190616061301 1 302 0.0 8.0 0.00 0.00 0.00 89 1014.7
20190616061100 2 302 0.0 8.0 0.00 0.00 0.00 89 1014.6
20190616060859 2 307 0.0 9.7 0.00 0.00 0.00 89 1014.6
20190616060657 1 315 4.8 9.7 0.00 0.00 0.00 89 1014.6
20190616060455 2 230 0.0 14.5 0.00 0.00 0.00 89 1014.5
20190616060253 2 305 0.0 14.5 0.00 0.00 0.00 89 1014.6
20190616060052 2 329 3.2 6.4 0.00 0.00 0.00 90 1014.5
20190616055850 2 329 0.0 6.4 0.00 0.00 0.00 90 1014.5
20190616055649 2 299 0.0 6.4 0.00 0.00 0.00 90 1014.5
20190616055447 1 344 1.6 11.3 0.00 0.00 0.00 90 1014.5
20190616055246 1 336 0.0 11.3 0.00 0.00 0.00 91 1014.4
20190616055044 1 60 0.0 6.4 0.00 0.00 0.00 91 1014.4
20190616054843 0 322 1.6 6.4 0.00 0.00 0.00 91 1014.4
20190616054641 0 302 0.0 6.4 0.00 0.00 0.00 91 1014.4
20190616054439 1 302 0.0 11.3 0.00 0.00 0.00 91 1014.4
20190616054237 1 347 0.0 11.3 0.00 0.00 0.00 91 1014.4
20190616054036 2 329 0.0 4.8 0.00 0.00 0.00 91 1014.4
20190616053834 2 327 0.0 4.8 0.00 0.00 0.00 92 1014.2
20190616053632 2 279 1.6 4.8 0.00 0.00 0.00 92 1014.2
20190616053431 2 74 0.0 9.7 0.00 0.00 0.00 92 1014.2
20190616053229 2 320 0.0 9.7 0.00 0.00 0.00 91 1014.2
20190616053027 3 295 6.4 8.0 0.00 0.00 0.00 91 1014.3
20190616052826 3 317 0.0 8.0 0.00 0.00 0.00 91 1014.2
20190616052624 3 313 0.0 8.0 0.00 0.00 0.00 91 1014.3
20190616052423 3 284 1.6 8.0 0.00 0.00 0.00 91 1014.3
20190616052221 3 303 0.0 8.0 0.00 0.00 0.00 91 1014.3
20190616052020 3 310 8.0 6.4 0.00 0.00 0.00 91 1014.3
20190616051818 3 223 0.0 6.4 0.00 0.00 0.00 91 1014.3
20190616051617 2 223 0.0 6.4 0.00 0.00 0.00 91 1014.3
20190616051415 2 223 3.2 6.4 0.00 0.00 0.00 91 1014.3
20190616051214 2 168 0.0 6.4 0.00 0.00 0.00 91 1014.2
20190616051012 3 310 4.8 8.0 0.00 0.00 0.00 90 1014.2
20190616050811 2 150 3.2 8.0 0.00 0.00 0.00 90 1014.2
20190616050609 3 247 4.8 8.0 0.00 0.00 0.00 90 1014.1
20190616050407 3 292 0.0 8.0 0.00 0.00 0.00 90 1014.2
20190616050206 3 298 4.8 8.0 0.00 0.00 0.00 90 1014.2
20190616050004 3 302 0.0 4.8 0.00 0.00 0.00 89 1014.2
20190616045803 3 319 0.0 4.8 0.00 0.00 0.00 89 1014.2
20190616045602 3 350 0.0 4.8 0.00 0.00 0.00 89 1014.2
20190616045359 3 350 0.0 4.8 0.00 0.00 0.00 89 1014.2
20190616045158 4 312 0.0 4.8 0.00 0.00 0.00 88 1014.2
20190616044957 3 315 0.0 0.0 0.00 0.00 0.00 88 1014.3
20190616044755 3 237 0.0 0.0 0.00 0.00 0.00 88 1014.3
20190616044553 3 237 0.0 1.6 0.00 0.00 0.00 88 1014.3
20190616044352 3 323 0.0 1.6 0.00 0.00 0.00 88 1014.3
20190616044150 4 323 0.0 1.6 0.00 0.00 0.00 88 1014.4
20190616043949 4 323 0.0 4.8 0.00 0.00 0.00 88 1014.3
20190616043747 4 323 0.0 4.8 0.00 0.00 0.00 88 1014.3
20190616043546 4 323 0.0 4.8 0.00 0.00 0.00 87 1014.3
20190616043344 4 323 0.0 4.8 0.00 0.00 0.00 87 1014.3
20190616043143 4 340 0.0 4.8 0.00 0.00 0.00 87 1014.3
20190616042940 4 293 0.0 3.2 0.00 0.00 0.00 87 1014.3
20190616042738 4 338 0.0 3.2 0.00 0.00 0.00 86 1014.3
20190616042537 4 338 0.0 4.8 0.00 0.00 0.00 86 1014.2
20190616042335 4 293 0.0 4.8 0.00 0.00 0.00 86 1014.2
20190616042133 4 293 0.0 4.8 0.00 0.00 0.00 86 1014.2
20190616041932 4 289 0.0 6.4 0.00 0.00 0.00 86 1014.2
20190616041730 4 306 0.0 6.4 0.00 0.00 0.00 85 1014.2
20190616041529 4 306 0.0 0.0 0.00 0.00 0.00 85 1014.2
20190616041327 4 306 0.0 0.0 0.00 0.00 0.00 85 1014.2
20190616041126 4 298 0.0 0.0 0.00 0.00 0.00 84 1014.2
20190616040924 4 298 0.0 1.6 0.00 0.00 0.00 84 1014.2
20190616040723 4 298 0.0 1.6 0.00 0.00 0.00 84 1014.2
20190616040521 4 298 0.0 3.2 0.00 0.00 0.00 84 1014.1
20190616040320 4 298 0.0 3.2 0.00 0.00 0.00 84 1014.1
20190616040118 4 323 0.0 3.2 0.00 0.00 0.00 84 1014.2
20190616035917 3 288 1.6 4.8 0.00 0.00 0.00 84 1014.2
20190616035715 4 288 0.0 4.8 0.00 0.00 0.00 84 1014.2
20190616035513 3 288 0.0 0.0 0.00 0.00 0.00 83 1014.2
20190616035312 4 49 0.0 0.0 0.00 0.00 0.00 83 1014.2
20190616035110 4 49 0.0 0.0 0.00 0.00 0.00 83 1014.2
20190616034908 3 292 0.0 3.2 0.00 0.00 0.00 82 1014.2
20190616034707 4 292 0.0 3.2 0.00 0.00 0.00 82 1014.2
20190616034506 4 292 0.0 3.2 0.00 0.00 0.00 82 1014.2
20190616034304 4 292 0.0 3.2 0.00 0.00 0.00 82 1014.2
20190616034102 4 292 0.0 3.2 0.00 0.00 0.00 82 1014.1
20190616033901 3 312 0.0 4.8 0.00 0.00 0.00 82 1014.1
20190616033458 3 306 3.2 8.0 0.00 0.00 0.00 82 1014.2
20190616033257 4 264 0.0 8.0 0.00 0.00 0.00 82 1014.2
20190616033055 4 293 0.0 8.0 0.00 0.00 0.00 82 1014.2
20190616032853 4 307 0.0 3.2 0.00 0.00 0.00 82 1014.2
20190616032652 4 305 0.0 3.2 0.00 0.00 0.00 81 1014.2
20190616032450 4 305 0.0 6.4 0.00 0.00 0.00 81 1014.3
20190616032248 4 286 0.0 6.4 0.00 0.00 0.00 81 1014.4
20190616032047 4 261 0.0 3.2 0.00 0.00 0.00 81 1014.4
20190616031845 4 264 0.0 3.2 0.00 0.00 0.00 81 1014.4
20190616031644 5 264 0.0 3.2 0.00 0.00 0.00 81 1014.4
20190616031442 5 333 0.0 3.2 0.00 0.00 0.00 81 1014.5
20190616031240 5 291 3.2 3.2 0.00 0.00 0.00 81 1014.4
20190616031039 5 302 0.0 0.0 0.00 0.00 0.00 81 1014.4
20190616030837 4 323 1.6 0.0 0.00 0.00 0.00 81 1014.4
20190616030636 5 289 0.0 0.0 0.00 0.00 0.00 80 1014.5
20190616030434 3 289 0.0 4.8 0.00 0.00 0.00 80 1014.5
20190616030233 4 289 0.0 4.8 0.00 0.00 0.00 80 1014.5
20190616030031 4 289 0.0 4.8 0.00 0.00 0.00 80 1014.5
20190616025830 4 313 3.2 4.8 0.00 0.00 0.00 80 1014.5
20190616025628 3 286 0.0 4.8 0.00 0.00 0.00 80 1014.4
20190616025427 4 309 0.0 3.2 0.00 0.00 0.00 80 1014.5
20190616025225 3 324 0.0 3.2 0.00 0.00 0.00 79 1014.5
20190616025024 4 306 0.0 4.8 0.00 0.00 0.00 79 1014.4
20190616024822 4 307 0.0 4.8 0.00 0.00 0.00 78 1014.4
20190616024620 4 307 1.6 4.8 0.00 0.00 0.00 78 1014.4
20190616024419 5 307 0.0 0.0 0.00 0.00 0.00 79 1014.4
20190616024217 5 296 0.0 0.0 0.00 0.00 0.00 78 1014.4
20190616024016 5 296 0.0 1.6 0.00 0.00 0.00 78 1014.5
20190616023814 3 296 0.0 1.6 0.00 0.00 0.00 77 1014.5
20190616023613 4 296 0.0 1.6 0.00 0.00 0.00 77 1014.5
20190616023411 4 331 0.0 0.0 0.00 0.00 0.00 77 1014.5
20190616023209 3 330 0.0 0.0 0.00 0.00 0.00 76 1014.5
20190616023008 4 330 0.0 0.0 0.00 0.00 0.00 76 1014.5
20190616022806 3 330 0.0 0.0 0.00 0.00 0.00 76 1014.5
20190616022605 3 330 0.0 0.0 0.00 0.00 0.00 76 1014.5
20190616022403 3 330 0.0 3.2 0.00 0.00 0.00 75 1014.6
20190616022202 4 330 0.0 3.2 0.00 0.00 0.00 75 1014.6
20190616022000 5 326 0.0 1.6 0.00 0.00 0.00 75 1014.6
20190616021759 4 319 0.0 1.6 0.00 0.00 0.00 75 1014.6
20190616021557 4 305 0.0 1.6 0.00 0.00 0.00 75 1014.7
20190616021356 5 305 1.6 4.8 0.00 0.00 0.00 74 1014.7
20190616021154 5 312 0.0 4.8 0.00 0.00 0.00 75 1014.7
20190616020952 4 312 3.2 1.6 0.00 0.00 0.00 74 1014.7
20190616020750 5 331 0.0 1.6 0.00 0.00 0.00 74 1014.7
20190616020549 5 343 0.0 1.6 0.00 0.00 0.00 73 1014.8
20190616020347 4 343 0.0 1.6 0.00 0.00 0.00 73 1014.7
20190616020146 4 306 0.0 1.6 0.00 0.00 0.00 73 1014.8
20190616015944 5 303 0.0 3.2 0.00 0.00 0.00 73 1014.7
20190616015743 5 303 0.0 3.2 0.00 0.00 0.00 72 1014.8
20190616015541 4 299 0.0 3.2 0.00 0.00 0.00 73 1014.8
20190616015340 5 293 0.0 3.2 0.00 0.00 0.00 72 1014.8
20190616015138 3 293 0.0 3.2 0.00 0.00 0.00 72 1014.9
20190616014937 4 282 1.6 4.8 0.00 0.00 0.00 72 1014.9
20190616014735 4 309 0.0 4.8 0.00 0.00 0.00 72 1014.9
20190616014534 4 309 0.0 8.0 0.00 0.00 0.00 72 1014.9
20190616014332 5 347 0.0 8.0 0.00 0.00 0.00 71 1014.8
20190616014131 5 306 0.0 8.0 0.00 0.00 0.00 71 1014.8
20190616013929 4 288 0.0 4.8 0.00 0.00 0.00 72 1014.9
20190616013727 4 324 0.0 4.8 0.00 0.00 0.00 71 1014.8
20190616013526 4 324 1.6 3.2 0.00 0.00 0.00 71 1014.8
20190616013324 4 303 0.0 3.2 0.00 0.00 0.00 71 1014.8
20190616013122 5 329 0.0 3.2 0.00 0.00 0.00 71 1014.8
20190616012921 5 317 0.0 8.0 0.00 0.00 0.00 71 1014.8
20190616012719 5 303 1.6 8.0 0.00 0.00 0.00 71 1014.8
20190616012518 4 317 0.0 6.4 0.00 0.00 0.00 71 1014.8
20190616012316 5 317 0.0 6.4 0.00 0.00 0.00 71 1014.8
20190616012115 5 352 0.0 6.4 0.00 0.00 0.00 70 1014.8
20190616011913 5 4 1.6 6.4 0.00 0.00 0.00 70 1014.9
20190616011712 5 306 4.8 6.4 0.00 0.00 0.00 70 1014.9
20190616011510 5 326 1.6 4.8 0.00 0.00 0.00 70 1014.9
20190616011309 5 268 0.0 4.8 0.00 0.00 0.00 70 1014.9
20190616011107 5 309 0.0 4.8 0.00 0.00 0.00 70 1015.0
20190616010906 5 320 3.2 4.8 0.00 0.00 0.00 70 1015.0
20190616010704 5 281 1.6 4.8 0.00 0.00 0.00 70 1014.9
20190616010502 5 281 3.2 1.6 0.00 0.00 0.00 70 1015.0
20190616010301 5 320 3.2 1.6 0.00 0.00 0.00 70 1015.0
20190616010059 4 307 0.0 1.6 0.00 0.00 0.00 69 1015.0
20190616005857 4 307 0.0 8.0 0.00 0.00 0.00 69 1015.0
20190616005656 5 281 0.0 8.0 0.00 0.00 0.00 69 1015.0
20190616005454 5 281 0.0 6.4 0.00 0.00 0.00 70 1015.0
20190616005253 4 281 0.0 6.4 0.00 0.00 0.00 70 1015.0
20190616005051 5 307 3.2 4.8 0.00 0.00 0.00 69 1015.0
20190616004850 5 288 0.0 4.8 0.00 0.00 0.00 69 1015.0
20190616004648 5 292 1.6 4.8 0.00 0.00 0.00 69 1015.0
20190616004447 5 310 0.0 4.8 0.00 0.00 0.00 69 1014.9
20190616004245 6 319 0.0 4.8 0.00 0.00 0.00 69 1014.9
20190616004044 6 275 0.0 6.4 0.00 0.00 0.00 69 1015.0
20190616003842 5 310 0.0 6.4 0.00 0.00 0.00 69 1014.9
20190616003641 5 284 0.0 6.4 0.00 0.00 0.00 69 1015.0
20190616003439 5 300 1.6 8.0 0.00 0.00 0.00 70 1015.0
20190616003237 5 293 0.0 8.0 0.00 0.00 0.00 69 1015.0
20190616003036 5 326 0.0 6.4 0.00 0.00 0.00 70 1015.0
20190616002834 5 329 3.2 6.4 0.00 0.00 0.00 69 1015.1
20190616002632 5 307 3.2 6.4 0.00 0.00 0.00 69 1015.1
20190616002431 5 340 0.0 4.8 0.00 0.00 0.00 69 1015.1
20190616002230 5 319 1.6 4.8 0.00 0.00 0.00 69 1015.1
20190616002028 5 285 0.0 9.7 0.00 0.00 0.00 69 1015.1
20190616001826 6 312 0.0 9.7 0.00 0.00 0.00 69 1015.2
20190616001625 6 302 0.0 9.7 0.00 0.00 0.00 69 1015.1
20190616001423 6 315 1.6 8.0 0.00 0.00 0.00 69 1015.1
20190616001222 6 296 0.0 8.0 0.00 0.00 0.00 69 1015.2
20190616001020 6 331 0.0 9.7 0.00 0.00 0.00 69 1015.3
20190616000822 5 326 0.0 9.7 0.00 0.00 0.00 69 1015.3
20190616000617 6 327 0.0 9.7 0.00 0.00 0.00 69 1015.3
20190616000416 5 322 0.0 8.0 0.00 0.00 0.00 69 1015.4
20190616000214 5 264 0.0 8.0 0.00 0.00 0.00 68 1015.4
20190616000012 6 288 0.0 9.7 0.00 0.00 0.00 69 1015.4
20190615235811 6 288 0.0 9.7 0.00 0.00 0.00 69 1015.4
20190615235609 6 320 3.2 9.7 0.00 0.00 0.00 69 1015.5
20190615235408 6 317 1.6 8.0 0.00 0.00 0.00 69 1015.5
20190615235206 5 336 6.4 8.0 0.00 0.00 0.00 69 1015.5
20190615235005 5 299 4.8 8.0 0.00 0.00 0.00 69 1015.5
20190615234803 5 317 8.0 8.0 0.00 0.00 0.00 68 1015.6
20190615234601 4 320 6.4 8.0 0.00 0.00 0.00 68 1015.6
20190615234401 4 282 1.6 6.4 0.00 0.00 0.00 69 1015.6
20190615234158 4 306 4.8 6.4 0.00 0.00 0.00 68 1015.7
20190615233957 5 300 0.0 8.0 0.00 0.00 0.00 68 1015.7
20190615233755 5 279 1.6 8.0 0.00 0.00 0.00 68 1015.7
20190615233554 4 309 3.2 11.3 0.00 0.00 0.00 68 1015.7
20190615233352 5 344 4.8 11.3 0.00 0.00 0.00 68 1015.7
20190615233151 5 281 1.6 11.3 0.00 0.00 0.00 68 1015.8
20190615232949 5 358 6.4 8.0 0.00 0.00 0.00 68 1015.9
20190615232748 5 309 0.0 8.0 0.00 0.00 0.00 68 1015.9
20190615232546 5 22 0.0 11.3 0.00 0.00 0.00 68 1015.9
20190615232344 5 330 3.2 11.3 0.00 0.00 0.00 67 1016.0
20190615232143 5 282 0.0 11.3 0.00 0.00 0.00 67 1016.0
20190615231941 5 331 6.4 6.4 0.00 0.00 0.00 68 1016.0
20190615231739 5 315 0.0 6.4 0.00 0.00 0.00 68 1016.0
20190615231538 5 310 1.6 11.3 0.00 0.00 0.00 67 1016.1
20190615231336 5 329 4.8 11.3 0.00 0.00 0.00 68 1016.0
20190615231135 5 299 0.0 11.3 0.00 0.00 0.00 68 1016.1
20190615230933 5 336 3.2 12.9 0.00 0.00 0.00 68 1016.0
20190615230732 5 310 1.6 12.9 0.00 0.00 0.00 68 1016.0
20190615230530 5 352 3.2 11.3 0.00 0.00 0.00 68 1016.0
20190615230329 5 271 1.6 11.3 0.00 0.00 0.00 68 1015.9
20190615230127 5 358 8.0 11.3 0.00 0.00 0.00 67 1015.9
20190615225926 5 317 1.6 12.9 0.00 0.00 0.00 68 1015.9
20190615225724 5 46 3.2 12.9 0.00 0.00 0.00 68 1015.9
20190615225523 5 313 1.6 11.3 0.00 0.00 0.00 68 1015.8
20190615225321 5 341 4.8 11.3 0.00 0.00 0.00 68 1015.8
20190615225119 5 331 3.2 11.3 0.00 0.00 0.00 68 1015.9
20190615224918 6 331 0.0 9.7 0.00 0.00 0.00 68 1015.9
20190615224716 6 336 9.7 9.7 0.00 0.00 0.00 68 1015.9
20190615224515 6 306 0.0 11.3 0.00 0.00 0.00 68 1015.9
20190615224313 6 298 0.0 11.3 0.00 0.00 0.00 67 1015.9
20190615224111 6 306 4.8 11.3 0.00 0.00 0.00 67 1015.9
20190615223910 6 278 4.8 11.3 0.00 0.00 0.00 67 1015.9
20190615223708 6 316 3.2 11.3 0.00 0.00 0.00 67 1015.9
20190615223507 6 309 0.0 6.4 0.00 0.00 0.00 68 1015.9
20190615223305 6 29 1.6 6.4 0.00 0.00 0.00 68 1015.9
20190615223104 6 334 0.0 6.4 0.00 0.00 0.00 68 1015.9
20190615222902 6 333 0.0 8.0 0.00 0.00 0.00 68 1015.9
20190615222701 6 326 4.8 8.0 0.00 0.00 0.00 68 1015.9
20190615222500 6 337 1.6 12.9 0.00 0.00 0.00 68 1015.9
20190615222258 6 300 0.0 12.9 0.00 0.00 0.00 68 1015.9
20190615222056 6 320 3.2 12.9 0.00 0.00 0.00 69 1015.9
20190615221854 6 329 1.6 12.9 0.00 0.00 0.00 69 1015.9
20190615221653 6 56 4.8 12.9 0.00 0.00 0.00 68 1015.8
20190615221451 6 309 1.6 12.9 0.00 0.00 0.00 68 1015.9
20190615221250 6 303 9.7 12.9 0.00 0.00 0.00 68 1015.9
20190615221048 6 307 3.2 12.9 0.00 0.00 0.00 68 1015.9
20190615220847 6 327 3.2 12.9 0.00 0.00 0.00 68 1015.9
20190615220645 6 312 11.3 12.9 0.00 0.00 0.00 68 1015.9
20190615220443 5 343 1.6 14.5 0.00 0.00 0.00 68 1015.9
20190615220242 5 338 6.4 14.5 0.00 0.00 0.00 68 1015.9
20190615220040 6 12 11.3 16.1 0.00 0.00 0.00 68 1015.9
20190615215839 5 77 3.2 16.1 0.00 0.00 0.00 68 1016.0
20190615215637 5 306 1.6 16.1 0.00 0.00 0.00 68 1015.9
20190615215436 4 322 8.0 12.9 0.00 0.00 0.00 68 1015.9
20190615215234 5 11 6.4 12.9 0.00 0.00 0.00 68 1015.9
20190615215033 5 326 9.7 14.5 0.00 0.00 0.00 68 1016.0
20190615214831 5 322 3.2 14.5 0.00 0.00 0.00 68 1016.0
20190615214630 5 331 6.4 14.5 0.00 0.00 0.00 67 1016.0
20190615214428 5 358 8.0 12.9 0.00 0.00 0.00 67 1016.0
20190615214226 5 305 6.4 12.9 0.00 0.00 0.00 67 1016.0
20190615214025 5 275 8.0 9.7 0.00 0.00 0.00 67 1016.0
20190615213823 5 348 6.4 9.7 0.00 0.00 0.00 66 1016.0
20190615213621 5 305 4.8 9.7 0.00 0.00 0.00 65 1016.1
20190615213420 4 30 6.4 14.5 0.00 0.00 0.00 65 1016.0
20190615213218 5 358 1.6 14.5 0.00 0.00 0.00 65 1016.0
20190615213017 5 305 4.8 16.1 0.00 0.00 0.00 65 1016.0
20190615212815 5 278 0.0 16.1 0.00 0.00 0.00 64 1016.0
20190615212614 4 317 6.4 16.1 0.00 0.00 0.00 64 1016.0
20190615212412 5 341 1.6 12.9 0.00 0.00 0.00 64 1015.9
20190615212211 6 315 16.1 12.9 0.00 0.00 0.00 64 1015.9
20190615212009 6 316 1.6 12.9 0.00 0.00 0.00 63 1015.9
20190615211808 6 330 8.0 12.9 0.00 0.00 0.00 63 1016.0
20190615211606 6 300 4.8 12.9 0.00 0.00 0.00 63 1015.9
20190615211405 6 43 3.2 11.3 0.00 0.00 0.00 63 1015.9
20190615211203 6 268 0.0 11.3 0.00 0.00 0.00 62 1016.0
20190615211001 7 329 8.0 14.5 0.00 0.00 0.00 62 1015.9
20190615210800 6 236 0.0 14.5 0.00 0.00 0.00 62 1015.9
20190615210558 6 329 4.8 14.5 0.00 0.00 0.00 61 1015.9
20190615210356 7 21 9.7 16.1 0.00 0.00 0.00 61 1015.8
20190615210155 6 323 4.8 16.1 0.00 0.00 0.00 61 1015.8
20190615205953 7 0 4.8 14.5 0.00 0.00 0.00 61 1015.7
20190615205752 7 30 11.3 14.5 0.00 0.00 0.00 60 1015.7
20190615205550 7 315 9.7 14.5 0.00 0.00 0.00 60 1015.7
20190615205349 7 26 0.0 14.5 0.00 0.00 0.00 60 1015.7
20190615205147 7 329 9.7 14.5 0.00 0.00 0.00 59 1015.7
20190615204946 7 42 8.0 16.1 0.00 0.00 0.00 58 1015.7
20190615204744 7 320 6.4 16.1 0.00 0.00 0.00 58 1015.8
20190615204543 7 40 4.8 12.9 0.00 0.00 0.00 57 1015.7
20190615204341 7 322 9.7 12.9 0.00 0.00 0.00 57 1015.6
20190615204140 7 300 1.6 12.9 0.00 0.00 0.00 57 1015.7
20190615203938 7 25 9.7 17.7 0.00 0.00 0.00 56 1015.6
20190615203737 7 61 11.3 17.7 0.00 0.00 0.00 56 1015.6
20190615203535 7 329 4.8 12.9 0.00 0.00 0.00 56 1015.6
20190615203333 7 327 4.8 12.9 0.00 0.00 0.00 55 1015.5
20190615203132 7 22 4.8 12.9 0.00 0.00 0.00 55 1015.6
20190615202930 8 316 11.3 14.5 0.00 0.00 0.00 54 1015.5
20190615202728 7 324 9.7 14.5 0.00 0.00 0.00 53 1015.6
20190615202527 7 233 3.2 12.9 0.00 0.00 0.00 52 1015.5
20190615202325 8 336 11.3 12.9 0.00 0.00 0.00 52 1015.5
20190615202124 7 101 11.3 12.9 0.00 0.00 0.00 52 1015.5
20190615201922 7 299 1.6 17.7 0.00 0.00 0.00 51 1015.4
20190615201721 7 15 6.4 17.7 0.00 0.00 0.00 51 1015.4
20190615201519 7 305 4.8 16.1 0.00 0.00 0.00 51 1015.3
20190615201318 8 16 11.3 16.1 0.00 0.00 0.00 50 1015.4
20190615201116 8 357 8.0 16.1 0.00 0.00 0.00 49 1015.4
20190615200915 8 295 4.8 14.5 0.00 0.00 0.00 49 1015.3
20190615200713 8 298 3.2 14.5 0.00 0.00 0.00 48 1015.4
20190615200512 7 327 8.0 20.9 0.00 0.00 0.00 48 1015.4
20190615200310 8 324 12.9 20.9 0.00 0.00 0.00 48 1015.3
20190615200108 8 324 9.7 20.9 0.00 0.00 0.00 47 1015.4
20190615195907 8 313 11.3 17.7 0.00 0.00 0.00 47 1015.4
20190615195705 8 220 0.0 17.7 0.00 0.00 0.00 47 1015.4
20190615195503 8 312 1.6 16.1 0.00 0.00 0.00 47 1015.3
20190615195302 8 351 6.4 16.1 0.00 0.00 0.00 46 1015.3
20190615195100 8 254 3.2 16.1 0.00 0.00 0.00 46 1015.3
20190615194859 8 153 0.0 16.1 0.00 0.00 0.00 46 1015.3
20190615194657 8 337 11.3 16.1 0.00 0.00 0.00 46 1015.3
20190615194456 8 298 4.8 16.1 0.00 0.00 0.00 46 1015.3
20190615194053 8 334 8.0 20.9 0.00 0.00 0.00 45 1015.3
20190615193851 8 330 8.0 20.9 0.00 0.00 0.00 45 1015.3
20190615193650 8 333 16.1 20.9 0.00 0.00 0.00 45 1015.3
20190615193448 8 313 4.8 14.5 0.00 0.00 0.00 45 1015.3
20190615193247 8 331 8.0 14.5 0.00 0.00 0.00 44 1015.2
20190615193045 9 358 6.4 25.7 0.00 0.00 0.00 44 1015.3
20190615192843 8 312 11.3 25.7 0.00 0.00 0.00 44 1015.2
20190615192642 9 306 8.0 25.7 0.00 0.00 0.00 44 1015.3
20190615192440 9 317 14.5 20.9 0.00 0.00 0.00 44 1015.3
20190615192238 9 5 6.4 20.9 0.00 0.00 0.00 44 1015.3
20190615192037 8 350 6.4 16.1 0.00 0.00 0.00 44 1015.3
20190615191835 9 327 8.0 16.1 0.00 0.00 0.00 43 1015.3
20190615191634 8 18 8.0 16.1 0.00 0.00 0.00 43 1015.4
20190615191432 9 338 12.9 20.9 0.00 0.00 0.00 43 1015.4
20190615191231 9 315 6.4 20.9 0.00 0.00 0.00 43 1015.4
20190615191029 9 310 4.8 22.5 0.00 0.00 0.00 43 1015.4
20190615190828 9 329 4.8 22.5 0.00 0.00 0.00 43 1015.4
20190615190626 9 278 8.0 22.5 0.00 0.00 0.00 43 1015.3
20190615190425 9 310 14.5 20.9 0.00 0.00 0.00 43 1015.3
20190615190223 10 357 17.7 20.9 0.00 0.00 0.00 43 1015.3
20190615190022 10 310 9.7 22.5 0.00 0.00 0.00 43 1015.3
20190615185820 9 327 11.3 22.5 0.00 0.00 0.00 42 1015.4
20190615185619 10 309 9.7 22.5 0.00 0.00 0.00 42 1015.4
20190615185417 10 313 14.5 22.5 0.00 0.00 0.00 41 1015.3
20190615185215 10 337 6.4 22.5 0.00 0.00 0.00 41 1015.3
20190615185014 10 326 11.3 19.3 0.00 0.00 0.00 41 1015.3
20190615184812 10 33 14.5 19.3 0.00 0.00 0.00 40 1015.4
20190615184610 10 348 11.3 19.3 0.00 0.00 0.00 40 1015.3
20190615184409 9 19 12.9 24.1 0.00 0.00 0.00 40 1015.3
20190615184207 10 326 16.1 24.1 0.00 0.00 0.00 39 1015.3
20190615184006 10 326 8.0 17.7 0.00 0.00 0.00 39 1015.3
20190615183804 10 316 9.7 17.7 0.00 0.00 0.00 39 1015.3
20190615183603 11 333 4.8 17.7 0.00 0.00 0.00 39 1015.3
20190615183401 10 348 12.9 16.1 0.00 0.00 0.00 39 1015.3
20190615183200 11 358 3.2 16.1 0.00 0.00 0.00 38 1015.3
20190615182958 10 343 4.8 20.9 0.00 0.00 0.00 39 1015.3
20190615182757 10 323 6.4 20.9 0.00 0.00 0.00 38 1015.4
20190615182555 10 316 8.0 20.9 0.00 0.00 0.00 38 1015.3
20190615182354 11 292 11.3 25.7 0.00 0.00 0.00 38 1015.2
20190615182152 10 343 9.7 25.7 0.00 0.00 0.00 39 1015.2
20190615181951 10 23 8.0 24.1 0.00 0.00 0.00 38 1015.3
20190615181749 10 315 12.9 24.1 0.00 0.00 0.00 38 1015.3
20190615181547 10 323 16.1 19.3 0.00 0.00 0.00 38 1015.3
20190615181345 9 327 12.9 19.3 0.00 0.00 0.00 39 1015.3
20190615181144 10 358 6.4 19.3 0.00 0.00 0.00 37 1015.3
20190615180942 10 358 8.0 19.3 0.00 0.00 0.00 37 1015.3
20190615180741 10 334 3.2 19.3 0.00 0.00 0.00 37 1015.2
20190615180539 10 267 9.7 17.7 0.00 0.00 0.00 38 1015.2
20190615180338 10 303 4.8 17.7 0.00 0.00 0.00 38 1015.2
20190615180136 10 312 11.3 17.7 0.00 0.00 0.00 38 1015.3
20190615175935 10 331 6.4 20.9 0.00 0.00 0.00 39 1015.3
20190615175733 10 336 6.4 20.9 0.00 0.00 0.00 39 1015.4
20190615175532 10 345 8.0 19.3 0.00 0.00 0.00 39 1015.3
20190615175330 10 324 4.8 19.3 0.00 0.00 0.00 39 1015.3
20190615175129 7 326 4.8 19.3 0.00 0.00 0.00 39 1015.2
20190615174927 10 309 11.3 22.5 0.00 0.00 0.00 39 1015.2
20190615174725 10 340 4.8 22.5 0.00 0.00 0.00 40 1015.2
20190615174524 10 320 8.0 19.3 0.00 0.00 0.00 41 1015.3
20190615174322 10 336 11.3 19.3 0.00 0.00 0.00 40 1015.2
20190615174120 10 358 6.4 19.3 0.00 0.00 0.00 40 1015.3
20190615173919 10 345 12.9 17.7 0.00 0.00 0.00 40 1015.2
20190615173717 10 317 8.0 17.7 0.00 0.00 0.00 40 1015.2
20190615173516 10 326 8.0 24.1 0.00 0.00 0.00 40 1015.2
20190615173314 11 336 8.0 24.1 0.00 0.00 0.00 40 1015.2
20190615173113 11 312 6.4 24.1 0.00 0.00 0.00 40 1015.1
20190615172911 11 316 8.0 14.5 0.00 0.00 0.00 40 1015.1
20190615172710 11 351 3.2 14.5 0.00 0.00 0.00 40 1015.1
20190615172508 11 358 8.0 22.5 0.00 0.00 0.00 40 1015.1
20190615172307 11 329 6.4 22.5 0.00 0.00 0.00 41 1015.1
20190615172105 10 319 4.8 22.5 0.00 0.00 0.00 41 1015.1
20190615171904 10 330 11.3 20.9 0.00 0.00 0.00 41 1015.1
20190615171702 10 358 9.7 20.9 0.00 0.00 0.00 40 1015.0
20190615171500 10 323 6.4 19.3 0.00 0.00 0.00 39 1015.0
20190615171259 10 331 14.5 19.3 0.00 0.00 0.00 39 1015.1
20190615171057 10 307 9.7 19.3 0.00 0.00 0.00 40 1015.0
20190615170856 11 354 11.3 20.9 0.00 0.00 0.00 39 1015.0
20190615170654 11 327 11.3 20.9 0.00 0.00 0.00 38 1015.0
20190615170452 11 32 1.6 24.1 0.00 0.00 0.00 38 1015.0
20190615170251 11 300 12.9 24.1 0.00 0.00 0.00 38 1015.0
20190615170049 11 327 9.7 24.1 0.00 0.00 0.00 38 1015.0
20190615165848 11 327 9.7 24.1 0.00 0.00 0.00 38 1014.9
20190615165646 11 329 11.3 24.1 0.00 0.00 0.00 37 1015.0
20190615165445 10 307 17.7 19.3 0.00 0.00 0.00 34 1014.9
20190615165243 11 319 3.2 19.3 0.00 0.00 0.00 34 1014.9
20190615165042 11 258 4.8 22.5 0.00 0.00 0.00 33 1014.9
20190615164840 11 348 8.0 22.5 0.00 0.00 0.00 33 1014.9
20190615164639 11 336 9.7 22.5 0.00 0.00 0.00 33 1014.9
20190615164437 12 330 6.4 17.7 0.00 0.00 0.00 33 1014.9
20190615164235 12 344 9.7 17.7 0.00 0.00 0.00 33 1015.0
20190615164034 12 14 8.0 22.5 0.00 0.00 0.00 33 1015.0
20190615163832 12 320 12.9 22.5 0.00 0.00 0.00 33 1015.0
20190615163631 12 307 8.0 22.5 0.00 0.00 0.00 33 1015.1
20190615163429 12 323 8.0 25.7 0.00 0.00 0.00 32 1015.0
20190615163227 12 333 6.4 25.7 0.00 0.00 0.00 32 1015.1
20190615163026 13 272 12.9 19.3 0.00 0.00 0.00 31 1015.1
20190615162824 12 317 9.7 19.3 0.00 0.00 0.00 32 1015.1
20190615162623 12 296 17.7 19.3 0.00 0.00 0.00 31 1015.1
20190615162421 12 299 14.5 14.5 0.00 0.00 0.00 31 1015.1
20190615162220 12 320 14.5 14.5 0.00 0.00 0.00 28 1015.2
20190615162018 12 354 3.2 14.5 0.00 0.00 0.00 29 1015.2
20190615161817 12 354 3.2 14.5 0.00 0.00 0.00 29 1015.2
20190615161615 12 334 6.4 14.5 0.00 0.00 0.00 31 1015.2
20190615161414 12 300 4.8 17.7 0.00 0.00 0.00 33 1015.3
20190615161213 11 317 0.0 17.7 0.00 0.00 0.00 34 1015.3
20190615161011 11 288 3.2 19.3 0.00 0.00 0.00 34 1015.3
20190615160809 11 348 0.0 19.3 0.00 0.00 0.00 35 1015.3
20190615160607 11 345 4.8 19.3 0.00 0.00 0.00 35 1015.3
20190615160406 11 295 6.4 24.1 0.00 0.00 0.00 35 1015.3
20190615160205 12 337 6.4 24.1 0.00 0.00 0.00 35 1015.3
20190615160002 12 358 11.3 25.7 0.00 0.00 0.00 32 1015.4
20190615155801 12 358 11.3 25.7 0.00 0.00 0.00 31 1015.4
20190615155559 12 307 12.9 25.7 0.00 0.00 0.00 31 1015.4
20190615155358 12 324 12.9 17.7 0.00 0.00 0.00 30 1015.4
20190615155156 13 312 8.0 17.7 0.00 0.00 0.00 31 1015.5
20190615154955 12 305 12.9 14.5 0.00 0.00 0.00 31 1015.5
20190615154753 12 307 3.2 14.5 0.00 0.00 0.00 32 1015.5
20190615154552 12 323 8.0 20.9 0.00 0.00 0.00 34 1015.6
20190615154350 12 310 6.4 20.9 0.00 0.00 0.00 34 1015.7
20190615154149 12 296 3.2 20.9 0.00 0.00 0.00 34 1015.7
20190615153947 12 309 8.0 22.5 0.00 0.00 0.00 34 1015.7
20190615153746 12 322 11.3 22.5 0.00 0.00 0.00 34 1015.7
20190615153544 12 279 20.9 22.5 0.00 0.00 0.00 34 1015.7
20190615153342 12 347 12.9 22.5 0.00 0.00 0.00 34 1015.7
20190615153141 12 319 11.3 22.5 0.00 0.00 0.00 34 1015.8
20190615152939 12 277 12.9 29.0 0.00 0.00 0.00 32 1015.8
20190615152738 13 295 4.8 29.0 0.00 0.00 0.00 32 1015.8
20190615152536 13 331 8.0 16.1 0.00 0.00 0.00 31 1015.8
20190615152334 13 277 8.0 16.1 0.00 0.00 0.00 29 1015.7
20190615152133 14 284 19.3 16.1 0.00 0.00 0.00 26 1015.8
20190615151931 13 327 8.0 20.9 0.00 0.00 0.00 26 1015.8
20190615151730 14 340 8.0 20.9 0.00 0.00 0.00 27 1015.8
20190615151528 14 251 1.6 19.3 0.00 0.00 0.00 28 1015.8
20190615151327 11 286 12.9 19.3 0.00 0.00 0.00 27 1015.8
20190615151125 10 298 8.0 19.3 0.00 0.00 0.00 27 1015.7
20190615150924 11 250 6.4 20.9 0.00 0.00 0.00 27 1015.9
20190615150722 10 164 0.0 20.9 0.00 0.00 0.00 27 1015.8
20190615150521 12 307 12.9 19.3 0.00 0.00 0.00 27 1015.9
20190615150319 11 316 11.3 19.3 0.00 0.00 0.00 26 1015.8
20190615150118 13 309 14.5 19.3 0.00 0.00 0.00 25 1015.8
20190615145916 13 310 1.6 11.3 0.00 0.00 0.00 26 1015.8
20190615145714 12 296 0.0 11.3 0.00 0.00 0.00 27 1015.9
20190615145513 12 298 8.0 12.9 0.00 0.00 0.00 24 1015.9
20190615145311 12 351 8.0 12.9 0.00 0.00 0.00 23 1015.9
20190615145109 13 302 3.2 12.9 0.00 0.00 0.00 22 1015.9
20190615144908 13 320 11.3 12.9 0.00 0.00 0.00 25 1016.0
20190615144706 13 355 1.6 12.9 0.00 0.00 0.00 25 1016.0
20190615144505 13 272 0.0 19.3 0.00 0.00 0.00 25 1016.0
20190615144303 13 334 9.7 19.3 0.00 0.00 0.00 25 1016.0
20190615144102 13 309 9.7 19.3 0.00 0.00 0.00 24 1016.0
20190615143900 14 309 11.3 14.5 0.00 0.00 0.00 22 1016.0
20190615143659 14 288 11.3 14.5 0.00 0.00 0.00 19 1016.1
20190615143457 14 258 4.8 12.9 0.00 0.00 0.00 20 1016.0
20190615143256 14 286 1.6 12.9 0.00 0.00 0.00 20 1016.0
20190615143054 15 341 8.0 11.3 0.00 0.00 0.00 19 1016.1
20190615142853 15 251 1.6 11.3 0.00 0.00 0.00 19 1016.0
20190615142651 15 270 11.3 11.3 0.00 0.00 0.00 20 1016.1
20190615142449 13 317 0.0 11.3 0.00 0.00 0.00 20 1016.2
20190615142248 13 296 3.2 11.3 0.00 0.00 0.00 20 1016.2
20190615142046 13 320 1.6 12.9 0.00 0.00 0.00 20 1016.2
20190615141845 14 300 8.0 12.9 0.00 0.00 0.00 19 1016.1
20190615141643 15 302 8.0 12.9 0.00 0.00 0.00 19 1016.2
20190615141441 14 268 1.6 12.9 0.00 0.00 0.00 19 1016.2
20190615141240 13 247 0.0 12.9 0.00 0.00 0.00 20 1016.2
20190615141038 13 282 4.8 8.0 0.00 0.00 0.00 20 1016.3
20190615140837 13 265 0.0 8.0 0.00 0.00 0.00 21 1016.3
20190615140635 11 198 0.0 8.0 0.00 0.00 0.00 21 1016.3
20190615140434 12 198 1.6 14.5 0.00 0.00 0.00 23 1016.4
20190615140232 12 289 0.0 14.5 0.00 0.00 0.00 24 1016.4
20190615140031 12 293 8.0 8.0 0.00 0.00 0.00 23 1016.4
20190615135829 13 316 6.4 8.0 0.00 0.00 0.00 21 1016.4
20190615135628 13 355 3.2 8.0 0.00 0.00 0.00 20 1016.4
20190615135426 13 293 4.8 9.7 0.00 0.00 0.00 21 1016.4
20190615135225 12 312 0.0 9.7 0.00 0.00 0.00 21 1016.4
20190615135023 13 326 3.2 19.3 0.00 0.00 0.00 22 1016.5
20190615134821 13 334 4.8 19.3 0.00 0.00 0.00 21 1016.6
20190615134620 13 344 3.2 19.3 0.00 0.00 0.00 21 1016.5
20190615134418 13 270 6.4 11.3 0.00 0.00 0.00 20 1016.5
20190615134216 13 272 0.0 11.3 0.00 0.00 0.00 20 1016.5
20190615134015 13 246 0.0 12.9 0.00 0.00 0.00 20 1016.5
20190615133813 13 288 1.6 12.9 0.00 0.00 0.00 21 1016.6
20190615133612 13 254 3.2 12.9 0.00 0.00 0.00 21 1016.5
20190615133410 13 255 1.6 11.3 0.00 0.00 0.00 22 1016.6
20190615133209 13 253 0.0 11.3 0.00 0.00 0.00 22 1016.6
20190615133007 13 258 0.0 11.3 0.00 0.00 0.00 23 1016.6
20190615132806 12 217 1.6 11.3 0.00 0.00 0.00 24 1016.7
20190615132604 11 236 1.6 11.3 0.00 0.00 0.00 26 1016.7
20190615132403 11 305 4.8 12.9 0.00 0.00 0.00 28 1016.7
20190615132201 10 295 9.7 12.9 0.00 0.00 0.00 28 1016.8
20190615132000 12 265 4.8 14.5 0.00 0.00 0.00 29 1016.8
20190615131758 12 310 8.0 14.5 0.00 0.00 0.00 29 1016.8
20190615131556 11 313 6.4 14.5 0.00 0.00 0.00 30 1016.8
20190615131355 11 296 0.0 12.9 0.00 0.00 0.00 30 1016.7
20190615131153 11 337 6.4 12.9 0.00 0.00 0.00 29 1016.8
20190615130951 12 306 1.6 12.9 0.00 0.00 0.00 28 1016.8
20190615130751 12 327 1.6 12.9 0.00 0.00 0.00 27 1016.8
20190615130548 13 307 3.2 14.5 0.00 0.00 0.00 26 1016.8
20190615130347 13 292 4.8 14.5 0.00 0.00 0.00 27 1016.8
20190615130145 11 299 4.8 14.5 0.00 0.00 0.00 27 1016.9
20190615125944 12 326 9.7 9.7 0.00 0.00 0.00 27 1016.9
20190615125742 10 317 0.0 9.7 0.00 0.00 0.00 26 1016.9
20190615125541 12 320 3.2 8.0 0.00 0.00 0.00 25 1016.9
20190615125339 11 264 1.6 8.0 0.00 0.00 0.00 25 1016.9
20190615125138 11 302 3.2 8.0 0.00 0.00 0.00 25 1017.0
20190615124935 12 255 1.6 8.0 0.00 0.00 0.00 25 1017.0
20190615124734 12 234 8.0 8.0 0.00 0.00 0.00 26 1017.0
20190615124532 10 316 3.2 8.0 0.00 0.00 0.00 25 1017.0
20190615124330 12 230 0.0 8.0 0.00 0.00 0.00 26 1017.1
20190615124129 12 286 1.6 8.0 0.00 0.00 0.00 25 1017.1
20190615123927 11 81 6.4 8.0 0.00 0.00 0.00 25 1017.2
20190615123725 11 278 4.8 8.0 0.00 0.00 0.00 25 1017.2
20190615123524 11 347 1.6 11.3 0.00 0.00 0.00 23 1017.3
20190615123322 10 286 0.0 11.3 0.00 0.00 0.00 25 1017.2
20190615123121 11 177 0.0 11.3 0.00 0.00 0.00 27 1017.3
20190615122919 11 299 0.0 14.5 0.00 0.00 0.00 27 1017.3
20190615122718 11 291 1.6 14.5 0.00 0.00 0.00 26 1017.3
20190615122516 9 345 9.7 11.3 0.00 0.00 0.00 27 1017.3
20190615122315 10 330 6.4 11.3 0.00 0.00 0.00 27 1017.3
20190615122113 11 217 0.0 11.3 0.00 0.00 0.00 29 1017.4
20190615121912 10 315 1.6 11.3 0.00 0.00 0.00 28 1017.4
20190615121710 10 309 4.8 11.3 0.00 0.00 0.00 28 1017.3
20190615121509 11 357 1.6 11.3 0.00 0.00 0.00 29 1017.3
20190615121307 11 25 8.0 11.3 0.00 0.00 0.00 28 1017.3
20190615120904 12 333 3.2 11.3 0.00 0.00 0.00 30 1017.4
20190615120702 12 299 3.2 11.3 0.00 0.00 0.00 30 1017.4
20190615120501 11 284 4.8 11.3 0.00 0.00 0.00 31 1017.4
20190615120259 12 261 0.0 11.3 0.00 0.00 0.00 33 1017.5
20190615120057 11 303 11.3 11.3 0.00 0.00 0.00 32 1017.5
20190615115856 11 217 1.6 12.9 0.00 0.00 0.00 32 1017.5
20190615115655 11 265 0.0 12.9 0.00 0.00 0.00 32 1017.5
20190615115453 11 285 4.8 6.4 0.00 0.00 0.00 31 1017.5
20190615115251 11 265 0.0 6.4 0.00 0.00 0.00 31 1017.5
20190615115050 11 254 0.0 9.7 0.00 0.00 0.00 33 1017.5
20190615114848 10 50 0.0 9.7 0.00 0.00 0.00 34 1017.5
20190615114647 9 50 0.0 9.7 0.00 0.00 0.00 35 1017.5
20190615114445 8 45 4.8 8.0 0.00 0.00 0.00 35 1017.5
20190615114244 8 15 4.8 8.0 0.00 0.00 0.00 34 1017.6
20190615114042 7 267 0.0 14.5 0.00 0.00 0.00 34 1017.6
20190615113841 8 288 3.2 14.5 0.00 0.00 0.00 34 1017.6
20190615113639 8 247 3.2 14.5 0.00 0.00 0.00 36 1017.6
20190615113437 11 303 3.2 11.3 0.00 0.00 0.00 36 1017.6
20190615113236 9 312 3.2 11.3 0.00 0.00 0.00 36 1017.6
20190615113034 11 334 4.8 6.4 0.00 0.00 0.00 34 1017.6
20190615112832 10 352 1.6 6.4 0.00 0.00 0.00 34 1017.6
20190615112631 11 288 0.0 6.4 0.00 0.00 0.00 35 1017.6
20190615112429 10 288 0.0 8.0 0.00 0.00 0.00 36 1017.6
20190615112228 10 330 0.0 8.0 0.00 0.00 0.00 36 1017.6
20190615112026 10 322 0.0 12.9 0.00 0.00 0.00 36 1017.6
20190615111825 9 288 0.0 12.9 0.00 0.00 0.00 38 1017.6
20190615111623 11 8 6.4 12.9 0.00 0.00 0.00 37 1017.7
20190615111422 10 306 0.0 9.7 0.00 0.00 0.00 37 1017.6
20190615111220 8 135 0.0 9.7 0.00 0.00 0.00 38 1017.7
20190615111019 11 264 0.0 12.9 0.00 0.00 0.00 38 1017.7
20190615110817 11 104 1.6 12.9 0.00 0.00 0.00 39 1017.7
20190615110616 11 312 0.0 12.9 0.00 0.00 0.00 40 1017.7
20190615110414 10 337 1.6 6.4 0.00 0.00 0.00 39 1017.7
20190615110212 10 33 3.2 6.4 0.00 0.00 0.00 38 1017.7
20190615110011 11 334 4.8 6.4 0.00 0.00 0.00 40 1017.7
20190615105809 11 277 3.2 6.4 0.00 0.00 0.00 41 1017.7
20190615105608 10 7 0.0 6.4 0.00 0.00 0.00 42 1017.7
20190615105406 10 292 0.0 11.3 0.00 0.00 0.00 42 1017.7
20190615105204 8 292 1.6 11.3 0.00 0.00 0.00 42 1017.7
20190615105003 9 295 1.6 9.7 0.00 0.00 0.00 43 1017.7
20190615104801 9 336 8.0 9.7 0.00 0.00 0.00 43 1017.8
20190615104600 9 257 0.0 9.7 0.00 0.00 0.00 43 1017.8
20190615104358 8 257 0.0 11.3 0.00 0.00 0.00 42 1017.8
20190615104157 10 320 0.0 11.3 0.00 0.00 0.00 41 1017.8
20190615103955 10 271 0.0 6.4 0.00 0.00 0.00 42 1017.8
20190615103754 10 291 0.0 6.4 0.00 0.00 0.00 43 1017.9
20190615103552 8 25 0.0 11.3 0.00 0.00 0.00 44 1017.9
20190615103351 9 60 1.6 11.3 0.00 0.00 0.00 47 1017.9
20190615103149 8 260 3.2 11.3 0.00 0.00 0.00 46 1017.9
20190615102947 8 317 9.7 9.7 0.00 0.00 0.00 47 1017.9
20190615102746 8 326 4.8 9.7 0.00 0.00 0.00 46 1018.0
20190615102544 8 281 1.6 11.3 0.00 0.00 0.00 46 1018.0
20190615102343 7 348 3.2 11.3 0.00 0.00 0.00 49 1018.0
20190615102141 8 267 3.2 11.3 0.00 0.00 0.00 50 1018.0
20190615101939 8 284 4.8 8.0 0.00 0.00 0.00 50 1018.0
20190615101738 7 315 9.7 8.0 0.00 0.00 0.00 50 1018.0
20190615101536 7 285 0.0 9.7 0.00 0.00 0.00 51 1018.0
20190615101335 7 331 1.6 9.7 0.00 0.00 0.00 50 1018.1
20190615101133 5 315 8.0 9.7 0.00 0.00 0.00 52 1018.0
20190615100932 6 233 0.0 11.3 0.00 0.00 0.00 51 1018.0
20190615100730 6 338 6.4 11.3 0.00 0.00 0.00 49 1018.1
20190615100529 7 327 4.8 9.7 0.00 0.00 0.00 50 1018.0
20190615100327 6 300 8.0 9.7 0.00 0.00 0.00 51 1018.0
20190615100126 7 260 1.6 9.7 0.00 0.00 0.00 52 1018.0
20190615095924 7 355 1.6 14.5 0.00 0.00 0.00 52 1018.0
20190615095723 7 5 1.6 14.5 0.00 0.00 0.00 55 1018.1
20190615095521 7 250 3.2 9.7 0.00 0.00 0.00 54 1018.0
20190615095319 7 265 3.2 9.7 0.00 0.00 0.00 52 1018.0
20190615095118 7 316 0.0 9.7 0.00 0.00 0.00 53 1018.0
20190615094917 7 281 4.8 11.3 0.00 0.00 0.00 52 1018.0
20190615094715 7 309 3.2 11.3 0.00 0.00 0.00 54 1018.0
20190615094513 6 305 3.2 14.5 0.00 0.00 0.00 54 1018.0
20190615094311 7 327 11.3 14.5 0.00 0.00 0.00 54 1018.1
20190615094110 7 324 3.2 14.5 0.00 0.00 0.00 54 1018.0
20190615093908 7 340 1.6 8.0 0.00 0.00 0.00 53 1018.0
20190615093707 7 272 1.6 8.0 0.00 0.00 0.00 54 1018.1
20190615093505 6 330 4.8 3.2 0.00 0.00 0.00 56 1018.1
20190615093304 7 270 0.0 3.2 0.00 0.00 0.00 57 1018.1
20190615093102 6 293 1.6 3.2 0.00 0.00 0.00 57 1018.1
20190615092901 7 310 0.0 8.0 0.00 0.00 0.00 58 1018.0
20190615092659 5 310 0.0 8.0 0.00 0.00 0.00 58 1018.1
20190615092458 5 28 1.6 6.4 0.00 0.00 0.00 58 1018.1
20190615092256 3 292 0.0 6.4 0.00 0.00 0.00 58 1018.1
20190615092054 6 277 0.0 8.0 0.00 0.00 0.00 59 1018.0
20190615091853 5 284 1.6 8.0 0.00 0.00 0.00 61 1018.1
20190615091651 5 351 0.0 8.0 0.00 0.00 0.00 62 1018.0
20190615091449 3 306 1.6 14.5 0.00 0.00 0.00 62 1018.0
20190615091248 1 282 1.6 14.5 0.00 0.00 0.00 62 1018.1
20190615091046 2 11 0.0 11.3 0.00 0.00 0.00 63 1018.0
20190615090845 5 309 0.0 11.3 0.00 0.00 0.00 62 1018.1
20190615090643 5 309 6.4 11.3 0.00 0.00 0.00 62 1018.0
20190615090442 3 305 9.7 11.3 0.00 0.00 0.00 62 1018.1
20190615090240 5 295 4.8 11.3 0.00 0.00 0.00 63 1018.0
20190615090039 4 319 6.4 6.4 0.00 0.00 0.00 62 1018.0
20190615085837 3 300 8.0 6.4 0.00 0.00 0.00 61 1018.0
20190615085636 5 300 4.8 6.4 0.00 0.00 0.00 63 1018.0
20190615085434 4 11 1.6 11.3 0.00 0.00 0.00 63 1018.0
20190615085233 5 310 3.2 11.3 0.00 0.00 0.00 63 1018.0
20190615085031 4 295 3.2 8.0 0.00 0.00 0.00 62 1018.0
20190615084830 6 338 4.8 8.0 0.00 0.00 0.00 63 1018.0
20190615084628 5 305 4.8 8.0 0.00 0.00 0.00 64 1018.0
20190615084426 6 291 1.6 11.3 0.00 0.00 0.00 64 1018.0
20190615084225 6 320 3.2 11.3 0.00 0.00 0.00 64 1018.0
20190615084023 5 281 1.6 12.9 0.00 0.00 0.00 64 1018.0
20190615083821 5 323 3.2 12.9 0.00 0.00 0.00 65 1018.0
20190615083620 5 39 0.0 12.9 0.00 0.00 0.00 64 1018.0
20190615083418 6 331 8.0 6.4 0.00 0.00 0.00 64 1018.0
20190615083217 5 315 3.2 6.4 0.00 0.00 0.00 63 1018.1
20190615083015 4 288 1.6 9.7 0.00 0.00 0.00 63 1018.0
20190615082814 4 307 1.6 9.7 0.00 0.00 0.00 64 1018.1
20190615082612 4 309 1.6 9.7 0.00 0.00 0.00 64 1018.2
20190615082411 5 0 3.2 8.0 0.00 0.00 0.00 64 1018.1
20190615082209 5 285 3.2 8.0 0.00 0.00 0.00 64 1018.2
20190615082008 5 317 1.6 9.7 0.00 0.00 0.00 64 1018.2
20190615081605 5 309 3.2 9.7 0.00 0.00 0.00 63 1018.1
20190615081403 3 320 3.2 11.3 0.00 0.00 0.00 63 1018.1
20190615081201 3 307 4.8 11.3 0.00 0.00 0.00 63 1018.1
20190615081000 4 336 1.6 11.3 0.00 0.00 0.00 63 1018.1
20190615080758 5 255 0.0 11.3 0.00 0.00 0.00 62 1018.1
20190615080556 5 307 4.8 11.3 0.00 0.00 0.00 62 1018.1
20190615080355 4 300 0.0 9.7 0.00 0.00 0.00 62 1018.0
20190615080153 4 312 9.7 9.7 0.00 0.00 0.00 61 1018.0
20190615075952 3 309 3.2 11.3 0.00 0.00 0.00 60 1018.1
20190615075750 2 316 1.6 11.3 0.00 0.00 0.00 58 1018.1
20190615075549 2 306 6.4 3.2 0.00 0.00 0.00 57 1018.1
20190615075347 4 291 0.0 3.2 0.00 0.00 0.00 53 1018.1
20190615075146 3 326 0.0 3.2 0.00 0.00 0.00 56 1018.1
20190615074944 2 316 0.0 0.0 0.00 0.00 0.00 56 1018.1
20190615074743 3 194 0.0 0.0 0.00 0.00 0.00 55 1018.1
20190615074541 2 194 0.0 0.0 0.00 0.00 0.00 55 1018.1
20190615074340 3 194 0.0 0.0 0.00 0.00 0.00 55 1018.2
20190615074138 5 194 0.0 0.0 0.00 0.00 0.00 55 1018.1
20190615073937 5 194 0.0 0.0 0.00 0.00 0.00 53 1018.2
20190615073735 5 194 0.0 0.0 0.00 0.00 0.00 56 1018.2
20190615073533 6 194 0.0 0.0 0.00 0.00 0.00 57 1018.1
20190615073332 6 194 0.0 0.0 0.00 0.00 0.00 58 1018.1
20190615073130 6 194 0.0 0.0 0.00 0.00 0.00 58 1018.1
20190615072928 4 194 0.0 0.0 0.00 0.00 0.00 59 1018.2
20190615072727 5 194 0.0 0.0 0.00 0.00 0.00 60 1018.1
20190615072525 6 194 0.0 0.0 0.00 0.00 0.00 61 1018.1
20190615072324 6 194 0.0 0.0 0.00 0.00 0.00 63 1018.1
20190615072122 6 194 0.0 0.0 0.00 0.00 0.00 64 1018.1
20190615071921 6 194 0.0 0.0 0.00 0.00 0.00 66 1018.1
20190615071719 6 194 0.0 0.0 0.00 0.00 0.00 67 1018.0
20190615071518 6 194 0.0 0.0 0.00 0.00 0.00 66 1018.0
20190615071316 5 194 0.0 0.0 0.00 0.00 0.00 65 1018.0
20190615071115 6 194 0.0 0.0 0.00 0.00 0.00 64 1018.0